[[{"header":{"parameterUnit":"m.s-1","parameterCategory":1,"la1":30.2991,"la2":30.254,"lo1":-89.0895,"lo2":-89.0444,"dy":0.0017,"dx":0.0017,"nx":28,"ny":28,"refTime":"2025-08-04T21:00:00:Z","depth":0,"parameterNumber":2,"parameterNumberName":"U-component_of_WINDS"},"data":[0,0,0,0,0,0,0,0,0,0,0,0,0,0,0,0,0,0,0,0,0,0,0,0,0,0,0,0,0,0,0,0,0,0,0,0,0,0,0,0,0,0,0,0,0,0,0,0,0,0,0,0,0,0,0,0,0,0,-3.2489,-3.2488,0,-3.2455,-3.2455,-3.2454,-3.2385,-3.2383,-3.2382,-3.2381,-3.2348,-3.2349,-3.2349,0,0,0,0,0,0,0,0,0,0,0,0,0,-3.2495,-3.2495,-3.2489,-3.2488,-3.2488,-3.2455,-3.2455,-3.2454,-3.2385,-3.2383,-3.2382,-3.238,-3.2348,-3.2349,-3.2349,0,0,0,0,0,0,0,0,0,0,0,0,0,-3.248,-3.2495,-3.2489,-3.2449,-3.2445,-3.2455,-3.2455,-3.2454,-3.2385,-3.2383,-3.2381,-3.2379,-3.2348,-3.2349,-3.2349,-3.2395,0,0,-3.2351,-3.2352,0,0,0,0,0,0,0,0,-3.2481,-3.248,-3.2455,-3.2452,-3.2448,-3.2422,-3.2445,-3.2434,-3.2386,-3.2408,-3.2381,-3.2378,-3.2375,-3.2373,-3.2371,-3.2394,-3.2392,-3.2351,-3.2352,-3.2352,-3.2352,0,0,0,0,0,0,0,-3.2482,-3.2481,-3.2475,-3.2455,-3.245,-3.2434,-3.2429,-3.2443,-3.2404,-3.2406,-3.2401,-3.2398,-3.2372,-3.2371,-3.237,-3.2392,-3.2351,-3.2352,-3.2352,-3.2353,-3.245,-3.2453,0,0,0,0,0,0,-3.2489,-3.2482,-3.2476,-3.2474,-3.2459,-3.2436,-3.2431,-3.2432,-3.2403,-3.2397,-3.24,-3.2395,-3.2371,-3.2369,-3.2369,-3.242,-3.2352,-3.2353,-3.2353,-3.2448,-3.2451,-3.2453,0,0,0,0,0,0,-3.2489,-3.2489,-3.2478,-3.2477,-3.2474,-3.2438,-3.244,-3.2433,-3.2431,-3.2398,-3.2391,-3.2405,-3.2369,-3.2368,-3.2389,-3.2418,-3.2353,-3.2354,-3.2446,-3.2449,-3.2452,-3.2523,0,0,0,0,0,0,-3.2489,-3.2489,-3.2506,-3.2478,-3.2474,-3.2498,-3.2442,-3.2434,-3.2432,-3.2426,-3.2402,-3.2396,-3.2367,-3.2388,-3.239,-3.2417,-3.2354,-3.2443,-3.2447,-3.2451,-3.2518,-3.2528,-3.2537,0,0,0,0,0,-3.249,-3.2527,-3.2507,-3.2507,-3.2494,-3.25,-3.2498,-3.2464,-3.2435,-3.2451,-3.2431,-3.2397,-3.2415,-3.2391,-3.2392,-3.242,-3.2441,-3.2446,-3.2451,-3.2513,-3.2526,-3.2537,0,0,0,0,0,0,-3.256,-3.2523,-3.25,-3.2529,-3.2518,-3.2488,-3.2507,-3.2478,-3.2476,-3.2469,-3.2428,-3.2423,-3.245,-3.2438,-3.2412,-3.2463,-3.2422,-3.2428,-3.247,-3.2482,-3.2491,-3.2493,-3.2355,0,0,0,0,0,-3.2579,-3.2586,-3.2554,-3.2583,-3.2578,-3.2545,-3.2546,-3.252,-3.2507,-3.2502,-3.2483,-3.2472,-3.2475,-3.2478,-3.2479,-3.2517,-3.251,-3.2537,-3.2546,-3.2554,-3.2559,-3.2577,-3.2588,-3.247,-3.2469,-3.2469,0,0,-3.2618,-3.2599,-3.2606,-3.2597,-3.2585,-3.2593,-3.2541,-3.2552,-3.2558,-3.2504,-3.2522,-3.2508,-3.2494,-3.2523,-3.2535,-3.2513,-3.2591,-3.2561,-3.2567,-3.2567,-3.2583,-3.2594,-3.2604,-3.2473,-3.2472,-3.2472,0,0,-3.2693,-3.268,-3.2702,-3.2692,-3.2674,-3.2652,-3.2658,-3.2632,-3.262,-3.2638,-3.2597,-3.2605,-3.2611,-3.2602,-3.2599,-3.2672,-3.264,-3.2674,-3.2723,-3.2741,-3.2751,-3.2759,-3.2784,-3.2793,-3.2679,-3.2679,-3.2679,0,-3.2744,-3.2754,-3.2717,-3.2731,-3.2728,-3.268,-3.2702,-3.2694,-3.2679,-3.2679,-3.2655,-3.2662,-3.2649,-3.2675,-3.2693,-3.2692,-3.2697,-3.2675,-3.2752,-3.276,-3.2767,-3.279,-3.28,-3.2683,-3.2683,-3.2682,-3.2682,0,-3.2817,-3.2825,-3.2845,-3.283,-3.283,-3.2849,-3.2815,-3.282,-3.2795,-3.2775,-3.2794,-3.2777,-3.2774,-3.2779,-3.2755,-3.2802,-3.2789,-3.276,-3.2717,-3.2783,-3.2804,-3.2812,-3.2689,-3.2687,-3.2686,-3.2685,0,0,-3.2932,-3.2898,-3.2906,-3.2899,-3.2877,-3.2883,-3.29,-3.2896,-3.29,-3.2892,-3.2905,-3.2912,-3.2885,-3.2881,-3.2856,-3.2873,-3.293,-3.2841,-3.284,-3.2857,-3.2979,-3.2999,-3.301,-3.291,-3.2912,-3.2913,-3.298,0,-3.3001,-3.3025,-3.2994,-3.3026,-3.3033,-3.2988,-3.3002,-3.2991,-3.2974,-3.2978,-3.2959,-3.2964,-3.2929,-3.2926,-3.294,-3.292,-3.2954,-3.2915,-3.2921,-3.2921,-3.2923,-3.3021,-3.3043,-3.3106,-3.2988,-3.2989,-3.299,0,-3.3083,-3.3078,-3.3111,-3.3087,-3.3089,-3.3102,-3.3096,-3.3101,-3.3088,-3.3074,-3.307,-3.304,-3.3056,-3.3017,-3.3037,-3.3011,-3.3012,-3.3003,-3.3005,-3.3002,-3.2958,-3.302,-3.3126,-3.3135,-3.3003,-3.3002,-3.3001,0,-3.3162,-3.3164,-3.3183,-3.3179,-3.3152,-3.3163,-3.3152,-3.3137,-3.3137,-3.3133,-3.3132,-3.313,-3.3128,-3.3128,-3.3098,-3.3073,-3.3122,-3.3081,-3.311,-3.3111,-3.3121,-3.312,-3.3227,-3.3125,-3.3125,-3.3125,-3.3125,0,-3.324,-3.3261,-3.3218,-3.323,-3.3253,-3.3217,-3.3241,-3.3226,-3.3213,-3.3222,-3.3185,-3.3193,-3.3156,-3.3161,-3.3139,-3.3158,-3.3158,-3.3147,-3.3141,-3.3149,-3.315,-3.3147,-3.3142,-3.3128,-3.3127,-3.3126,-3.3126,0,-3.3331,-3.3303,-3.3321,-3.3295,-3.3289,-3.3307,-3.3284,-3.3295,-3.3275,-3.3287,-3.3287,-3.3257,-3.3262,-3.3233,-3.3233,-3.3218,-3.3247,-3.3234,-3.3251,-3.3246,-3.3277,-3.3274,-3.3384,-3.3396,-3.3289,-3.329,-3.3291,0,-3.3381,-3.3396,-3.3372,-3.3375,-3.3366,-3.3371,-3.3371,-3.3337,-3.3338,-3.3325,-3.3337,-3.3338,-3.3337,-3.3346,-3.3324,-3.3324,-3.3309,-3.3348,-3.3309,-3.3317,-3.3307,-3.3306,-3.3307,-3.3355,-3.3356,-3.3358,-3.3358,0,-3.3473,-3.3459,-3.3459,-3.3455,-3.3455,-3.3451,-3.3444,-3.3449,-3.3412,-3.3416,-3.3419,-3.3418,-3.3418,-3.3419,-3.3414,-3.3404,-3.3375,-3.3371,-3.3378,-3.3385,-3.3394,-3.3388,-3.3271,-3.3368,-3.3367,-3.3367,-3.3366,-3.3366,-3.3544,-3.3555,-3.3539,-3.3541,-3.3533,-3.3527,-3.3535,-3.3517,-3.3519,-3.3515,-3.3496,-3.3503,-3.349,-3.3481,-3.3474,-3.3479,-3.3461,-3.347,-3.3472,-3.3475,-3.348,-3.3395,-3.3479,-3.3478,-3.3478,-3.3478,-3.3477,0,-3.3632,-3.362,-3.3622,-3.3613,-3.3615,-3.3588,-3.358,-3.3583,-3.3589,-3.358,-3.3579,-3.3584,-3.3585,-3.3564,-3.3563,-3.3572,-3.3558,-3.3572,-3.357,-3.3568,-3.3497,-3.3491,-3.3583,-3.3583,-3.3583,-3.3583,-3.3583,-3.3583,-3.3678,-3.3695,-3.3679,-3.3692,-3.368,-3.3686,-3.3683,-3.3678,-3.367,-3.3677,-3.3677,-3.3664,-3.365,-3.3648,-3.3648,-3.3642,-3.3643,-3.3661,-3.365,-3.3584,-3.3573,-3.3563,-3.3557,-3.3662,-3.3662,-3.372,-3.3721,-3.3721]},{"header":{"parameterUnit":"m.s-1","parameterCategory":1,"la1":30.2991,"la2":30.254,"lo1":-89.0895,"lo2":-89.0444,"dy":0.0017,"dx":0.0017,"nx":28,"ny":28,"refTime":"2025-08-04T21:00:00:Z","depth":0,"parameterNumber":3,"parameterNumberName":"V-component_of_WINDS"},"data":[0,0,0,0,0,0,0,0,0,0,0,0,0,0,0,0,0,0,0,0,0,0,0,0,0,0,0,0,0,0,0,0,0,0,0,0,0,0,0,0,0,0,0,0,0,0,0,0,0,0,0,0,0,0,0,0,0,0,1.1022,1.102,0,1.084,1.0838,1.0836,1.0775,1.0776,1.0777,1.0777,1.0584,1.0578,1.0572,0,0,0,0,0,0,0,0,0,0,0,0,0,1.1311,1.1306,1.1022,1.102,1.1018,1.0841,1.0838,1.0836,1.0775,1.0776,1.0777,1.0778,1.0585,1.0578,1.0571,0,0,0,0,0,0,0,0,0,0,0,0,0,1.1163,1.1304,1.1023,1.0966,1.096,1.0841,1.0838,1.0835,1.0775,1.0776,1.0777,1.0778,1.0588,1.0579,1.057,1.0493,0,0,1.0543,1.054,0,0,0,0,0,0,0,0,1.1171,1.1152,1.0977,1.097,1.0962,1.0832,1.0869,1.072,1.0775,1.0845,1.0777,1.0779,1.0665,1.065,1.0613,1.0483,1.0475,1.0543,1.0537,1.0534,1.0531,0,0,0,0,0,0,0,1.1182,1.116,1.095,1.0974,1.0965,1.0948,1.0928,1.084,1.075,1.0839,1.0834,1.0814,1.0661,1.0621,1.0608,1.0472,1.0543,1.0535,1.053,1.0526,1.0269,1.0268,0,0,0,0,0,0,1.1202,1.1169,1.0956,1.0945,1.1072,1.0942,1.092,1.0872,1.0751,1.0734,1.0813,1.0811,1.0636,1.0618,1.0601,1.0501,1.0534,1.0525,1.052,1.0271,1.0269,1.0268,0,0,0,0,0,0,1.1209,1.1184,1.0963,1.1055,1.1026,1.0936,1.0883,1.0868,1.0829,1.0731,1.0714,1.0789,1.0636,1.0613,1.052,1.0493,1.0521,1.0513,1.0273,1.027,1.0268,1.0302,0,0,0,0,0,0,1.1217,1.1187,1.1158,1.1055,1.1021,1.0888,1.0881,1.0864,1.0814,1.0811,1.0705,1.0688,1.0635,1.0534,1.0512,1.0482,1.0506,1.0275,1.0272,1.0269,1.0302,1.0301,1.0299,0,0,0,0,0,1.1228,1.1172,1.1156,1.1131,1.0983,1.0887,1.0867,1.0809,1.0813,1.0781,1.0719,1.0692,1.0501,1.0525,1.0499,1.0466,1.0276,1.0273,1.0269,1.0303,1.0301,1.0299,0,0,0,0,0,0,1.1271,1.1158,1.1139,1.1049,1.0979,1.0877,1.0836,1.0809,1.0733,1.0733,1.0662,1.0638,1.0551,1.0499,1.0529,1.0384,1.0387,1.0378,1.0421,1.0418,1.0417,1.043,1.0499,0,0,0,0,0,1.1271,1.1204,1.1108,1.1038,1.1004,1.0926,1.0882,1.0844,1.0766,1.0735,1.0666,1.059,1.0512,1.0463,1.0386,1.0295,1.027,1.026,1.0258,1.0258,1.025,1.0198,1.0192,1.0256,1.0256,1.0256,0,0,1.1268,1.1198,1.116,1.1045,1.0985,1.0916,1.0901,1.0828,1.0775,1.0723,1.0632,1.0579,1.0489,1.0397,1.0353,1.0351,1.0227,1.0253,1.0253,1.0246,1.0194,1.0188,1.0182,1.0254,1.0254,1.0255,0,0,1.1228,1.1169,1.1104,1.1046,1.0957,1.0906,1.0891,1.0793,1.0757,1.0665,1.0625,1.056,1.0428,1.0366,1.0317,1.0255,1.0226,1.0232,1.0223,1.0173,1.0167,1.0163,1.0139,1.0132,1.0225,1.0226,1.0226,0,1.1235,1.113,1.1073,1.1003,1.0953,1.0906,1.0839,1.0784,1.0674,1.064,1.064,1.0475,1.0411,1.0304,1.0289,1.0252,1.023,1.0243,1.0173,1.0168,1.0162,1.0139,1.0131,1.0227,1.0227,1.0226,1.0226,0,1.1143,1.1072,1.103,1.0928,1.0873,1.0804,1.0735,1.0686,1.0653,1.0602,1.0509,1.0431,1.0338,1.031,1.0276,1.0198,1.0199,1.0188,1.0188,1.0158,1.0135,1.0126,1.0228,1.0228,1.0228,1.0227,0,0,1.1123,1.0992,1.0977,1.0931,1.083,1.0772,1.0701,1.0613,1.0572,1.0498,1.0436,1.0326,1.0315,1.026,1.0219,1.0175,1.013,1.0168,1.0165,1.0163,1.0038,1.0046,1.0037,1.0111,1.0109,1.0108,1.0045,0,1.1069,1.0942,1.0889,1.0786,1.0719,1.0674,1.0612,1.0543,1.0493,1.0427,1.0371,1.0294,1.0286,1.0252,1.0207,1.0145,1.0103,1.0149,1.005,1.0047,1.0073,1.0025,1.0034,0.9978,1.0036,1.0034,1.0033,0,1.0988,1.0917,1.0808,1.0716,1.0686,1.0631,1.0546,1.0484,1.0404,1.0371,1.0311,1.0272,1.0194,1.0201,1.0092,1.0124,1.008,1.0044,1.004,1.0027,1.0037,1.001,0.9959,0.995,1.0018,1.002,1.0021,0,1.0983,1.0859,1.0778,1.074,1.0631,1.0594,1.0546,1.0468,1.0418,1.0343,1.031,1.0227,1.018,1.0115,1.0054,1.0066,0.995,0.9953,0.9918,0.992,0.9894,0.9897,0.9835,0.9869,0.9869,0.987,0.987,0,1.0927,1.0862,1.0775,1.0725,1.065,1.059,1.0517,1.0466,1.0396,1.0334,1.029,1.0232,1.0156,1.0088,1.004,0.9956,0.9935,0.9904,0.9892,0.9908,0.9911,0.9877,0.9878,0.9867,0.9868,0.9868,0.9869,0,1.0908,1.0848,1.0756,1.0662,1.0637,1.0586,1.0504,1.0452,1.0402,1.0323,1.0301,1.0221,1.0138,1.0072,0.9963,0.9931,0.9843,0.9829,0.987,0.9864,0.9833,0.9836,0.9745,0.9729,0.9776,0.9776,0.9776,0,1.0876,1.0825,1.0726,1.0683,1.0637,1.0567,1.0517,1.0455,1.0405,1.0311,1.027,1.0186,1.0114,0.9985,0.9915,0.9831,0.9815,0.9789,0.9802,0.9819,0.9813,0.9816,0.981,0.9787,0.9786,0.9786,0.9786,0,1.0825,1.0798,1.0729,1.065,1.0592,1.0526,1.0458,1.0425,1.035,1.0295,1.0212,1.0157,1.0048,0.9964,0.9874,0.9822,0.9791,0.9783,0.9771,0.9785,0.9811,0.9795,0.9865,0.9785,0.9785,0.9785,0.9785,0.9785,1.0797,1.075,1.0674,1.0598,1.0542,1.048,1.0428,1.0372,1.0302,1.021,1.0177,1.0091,1.0012,0.9888,0.9837,0.9767,0.9764,0.9746,0.9741,0.9738,0.9739,0.9824,0.9751,0.975,0.975,0.975,0.975,0,1.0743,1.0692,1.0624,1.0532,1.0473,1.0452,1.0377,1.0327,1.0253,1.0184,1.0115,1.0019,0.9938,0.9863,0.9777,0.9736,0.9719,0.9715,0.9716,0.9705,0.9747,0.9766,0.973,0.973,0.973,0.973,0.973,0.973,1.0707,1.0627,1.0591,1.0481,1.043,1.0348,1.0306,1.0248,1.0193,1.0088,1.0022,0.9974,0.9901,0.981,0.9734,0.9714,0.9684,0.9683,0.9659,0.9699,0.9702,0.9705,0.9722,0.9677,0.9677,0.9622,0.9622,0.9621]}]]